sat.trackr.live / text

‹ back to catalog

2024-092B

NORAD 59774 · 2024-092B

PAYLOAD ACTIVE UNKNOWN

§ Identity

Operator
Country
CIS
Launch date
2024-05-16
Launch site
PLMSC
Launch vehicle
Mass (kg)
RCS (m²)

External: N2YO · Heavens-Above · Gunter

§ Orbital elements

Epoch: 2026-05-25T04:35:00.354912Z

Period
94.23 min
Inclination
97.6456°
Eccentricity
0.0007641
Mean motion
15.28221564 rev/d
Perigee alt
475.9 km
Apogee alt
486.4 km
Semi-major
6,859.3 km
B*
3.4374e-4
RAAN
273.6852°
Arg perigee
259.4722°
Mean anomaly
100.5656°
Rev number
11,202

§ Raw data

2024-092B1 59774U 24092B   26145.19097633  .00009385  00000+0  34374-3 0  99932 59774  97.6456 273.6852 0007641 259.4722 100.5656 15.28221564112028

JSON: /api/v1/satellites/59774 · /tle

For live sub-satellite position, see the globe view (requires WebGL).

§ Visibility from observer

Set your observer location to see the next 7 days of passes ≥ 10°. The values pass through the URL so the page stays shareable.

No JS? Fill the form by hand. The geolocation button needs JavaScript.

§ Radio — SatNOGS DB

ModeDescriptionDownlinkUplink
GMSK USP Backup telemetry transmitter 401.140 MHz
GMSK USP Main telemetry transmitter 401.005 MHz

2 transmitters · refreshed weekly from db.satnogs.org